GFSNIL_sfc_dewp_351.txt.gz
Dewpoint
12 13 13 15 15 16 19 21 24 26 29 32 39 52 51 51 51 49 48 48 48 48
10 11 12 13 15 17 19 21 23 24 27 31 38 51 51 51 50 48 47 47 47 47
9 10 11 13 14 15 17 19 21 23 26 30 36 50 51 51 49 48 47 47 46 46
7 9 10 11 12 14 16 18 20 23 25 29 34 45 50 50 48 47 46 46 45 45
5 7 8 9 11 14 15 18 19 23 25 28 33 43 50 49 47 46 45 45 44 43
2 4 6 8 10 12 14 16 19 22 24 27 32 41 49 48 47 46 45 45 44 43
-1 1 4 7 9 11 13 16 18 21 24 27 32 38 44 48 47 46 45 45 44 43
-1 0 2 6 8 10 13 15 18 20 24 27 32 36 41 45 46 45 44 44 44 43
-3 -2 1 4 6 10 11 14 18 21 25 27 32 36 39 44 44 43 42 42 43 42
-5 -3 0 3 7 9 11 13 17 22 25 27 31 36 37 41 40 41 42 41 41 40
-5 -3 -1 2 6 8 11 14 18 21 24 27 31 36 36 38 36 36 37 40 40 39
-5 -3 -1 3 5 8 11 14 19 22 23 27 30 36 36 36 35 33 34 36 38 39
-5 -3 -1 3 5 9 12 15 20 21 23 28 28 36 36 33 32 32 33 33 35 39
-5 -3 3 3 5 8 11 14 19 21 22 25 28 32 37 36 32 32 32 33 33 37

GFSNIL_sfc_dewp_354.txt.gz
Dewpoint
13 14 15 16 17 17 18 20 20 22 23 24 27 31 34 41 53 53 52 50 50 50
11 12 14 14 16 18 19 20 20 20 22 24 27 29 32 37 52 52 51 50 50 50
7 10 12 14 15 16 18 18 19 20 22 23 25 28 32 37 50 51 50 49 49 49
5 7 10 12 14 15 17 17 18 20 21 23 25 28 31 36 47 50 49 48 48 47
5 5 9 10 11 13 15 17 18 19 21 23 25 28 31 35 42 49 48 47 47 46
3 4 6 9 10 12 14 15 17 19 20 22 24 27 30 33 38 49 47 46 46 46
3 4 5 7 9 11 13 15 17 18 20 22 25 29 31 34 39 48 47 47 46 45
2 3 4 6 8 10 13 16 17 18 20 23 27 30 32 33 37 47 46 46 46 45
-1 1 2 5 7 9 13 15 17 18 21 24 27 32 36 36 36 42 45 44 45 45
-1 -2 1 4 6 9 12 15 16 19 22 24 26 34 37 37 37 38 43 44 44 43
-2 -3 1 3 5 8 13 15 18 19 22 24 28 35 37 36 34 35 37 43 43 43
-2 -3 0 1 5 8 12 14 17 21 23 23 26 34 37 34 32 33 33 35 41 42
-1 -1 -0 4 5 9 12 14 17 21 23 25 24 31 36 35 32 32 32 33 35 41
-2 -1 4 5 5 7 11 13 15 19 21 23 24 28 34 36 32 32 32 32 33 38

GFSNIL_sfc_dewp_357.txt.gz
Dewpoint
12 13 14 17 16 16 18 19 21 21 22 22 23 25 28 30 32 36 40 54 53 53
11 11 12 14 16 17 19 20 19 20 21 22 23 24 27 28 31 34 38 51 53 52
8 10 11 13 14 16 17 18 18 19 20 21 22 24 25 28 30 33 38 47 51 51
7 8 9 11 13 14 16 17 17 18 19 19 21 23 26 26 28 31 36 40 50 50
7 7 8 9 10 12 14 15 16 17 18 20 21 23 25 26 28 31 33 37 49 49
4 5 6 7 8 10 12 13 15 17 18 19 20 22 24 27 28 31 33 38 48 48
3 4 4 5 6 8 11 13 15 16 18 19 22 23 26 29 30 32 34 38 46 48
3 3 2 3 5 7 10 13 15 17 18 20 23 26 29 31 32 32 33 37 45 48
1 1 -0 1 3 6 8 12 15 16 19 20 24 30 33 35 34 34 33 36 40 47
2 1 -1 0 2 4 7 12 13 16 19 21 24 30 33 37 35 33 33 36 40 46
2 -0 -1 -0 1 4 8 11 13 16 18 21 23 30 32 36 33 32 33 36 39 45
2 0 -0 -1 2 6 7 10 13 16 18 21 23 28 31 33 32 32 32 34 36 43
3 2 -1 1 5 6 7 9 13 15 19 22 22 26 31 32 31 32 32 32 33 39
4 2 2 4 7 6 7 9 12 14 18 19 22 23 29 32 30 31 32 32 32 34

GFSNIL_sfc_dewp_360.txt.gz
Dewpoint
6 9 8 9 9 11 13 15 16 18 18 18 18 19 21 24 26 28 32 32 35 38
5 6 6 7 9 10 12 15 16 16 17 18 18 19 20 22 25 27 30 32 35 38
6 5 5 6 6 8 10 11 13 14 16 17 17 18 19 21 24 26 28 31 33 36
4 4 5 5 5 6 8 9 11 13 14 15 16 18 20 19 22 24 27 30 32 34
2 3 2 2 3 5 5 7 9 12 13 15 17 17 19 20 21 23 25 27 31 32
-4 -4 -0 0 1 3 4 5 7 11 13 15 16 18 20 22 22 24 27 28 30 32
-6 -5 -2 -1 -0 -0 2 4 6 9 13 15 17 19 21 24 27 28 29 30 31 33
-4 -4 -3 -2 -2 -2 0 4 5 9 12 14 18 22 26 29 30 31 33 34 33 34
-5 -5 -4 -3 -3 -2 -1 1 5 7 11 14 18 25 30 31 30 31 32 33 34 34
-5 -4 -4 -4 -3 -3 -2 2 4 5 9 12 15 25 30 31 31 29 31 32 33 34
-3 -4 -4 -4 -4 -4 0 3 3 5 8 12 15 25 28 31 29 29 30 32 33 33
-5 -4 -4 -3 -3 -2 2 2 2 5 8 11 14 23 26 29 27 27 28 30 33 33
-4 -4 -4 -3 -2 -0 2 2 4 5 7 14 14 21 24 28 27 26 26 28 31 35
0 -2 -3 -2 -1 1 2 3 3 4 7 10 14 16 23 27 27 26 26 26 27 32

GFSNIL_sfc_dewp_363.txt.gz
Dewpoint
2 -0 0 -2 3 6 7 9 11 13 14 15 16 17 18 19 21 22 23 24 28 30
1 1 -0 -1 -3 5 6 9 9 10 12 13 15 16 17 18 20 22 22 25 28 29
4 2 1 2 -0 0 4 4 6 7 10 12 14 15 16 18 19 21 22 23 26 28
1 3 3 2 3 1 2 3 4 6 8 10 13 15 16 17 18 20 21 22 24 25
0 1 -4 -2 1 3 1 2 3 5 7 10 12 15 16 18 18 20 21 22 24 25
-6 -8 -5 -5 -1 1 1 0 1 4 5 7 11 14 16 18 20 21 23 25 29 28
-7 -8 -8 -6 -4 -3 -1 -1 0 2 4 7 10 13 16 20 23 27 28 28 31 30
-6 -8 -7 -7 -6 -4 -3 -1 -1 1 4 6 9 15 18 23 27 28 27 26 28 30
-9 -8 -7 -7 -7 -6 -4 -3 -2 1 2 3 9 18 23 25 26 28 25 24 26 29
-9 -7 -6 -7 -8 -5 -5 -4 -2 1 1 2 5 18 22 25 23 26 24 25 25 27
-7 -6 -5 -7 -6 -6 -7 -3 -0 1 1 3 6 18 21 24 22 24 23 24 25 27
-5 -5 -5 -5 -5 -4 -5 -2 0 2 2 2 4 17 20 21 20 23 22 24 25 25
-3 -4 -4 -2 -3 -5 -7 -0 2 2 2 8 5 15 19 19 20 21 21 23 24 26
-0 -2 -3 -2 -1 -2 -2 -0 0 1 2 3 6 10 18 20 18 21 23 23 22 23

GFSNIL_sfc_dewp_369.txt.gz
Dewpoint
4 3 2 -1 -1 1 2 3 5 7 6 7 8 10 14 16 17 18 19 19 21 22
4 3 -0 -3 -6 2 1 5 5 3 4 6 7 9 12 14 15 17 19 20 20 21
5 3 3 1 -1 -2 1 -1 1 1 3 5 7 8 10 13 14 16 18 19 21 21
4 4 4 3 2 -1 -1 1 0 1 2 4 6 7 8 10 11 14 15 18 19 21
3 3 -5 -3 -0 2 0 1 1 2 2 3 5 7 8 8 9 12 15 17 19 20
-3 -9 -5 -6 -4 -1 0 0 -1 1 -0 2 4 6 7 8 9 12 15 17 19 21
-12 -10 -10 -9 -8 -6 -4 -2 -1 -1 -0 1 3 6 7 10 13 14 16 18 20 21
-8 -13 -14 -12 -10 -8 -8 -4 -3 -2 -1 0 3 7 10 14 16 17 17 18 17 19
-14 -14 -13 -11 -10 -10 -7 -7 -6 -6 -4 -3 3 13 19 19 17 17 17 16 17 17
-16 -14 -13 -12 -12 -8 -7 -11 -7 -6 -6 -3 -1 14 19 21 17 17 16 16 16 16
-14 -13 -11 -12 -9 -10 -10 -7 -4 -3 -4 -3 1 15 18 20 16 14 15 16 16 16
-14 -12 -11 -8 -7 -7 -9 -4 -4 -3 -2 -2 -0 13 17 17 12 13 14 16 16 16
-11 -11 -8 -8 -7 -8 -14 -3 -2 -1 -1 5 4 12 15 16 13 13 14 15 16 19
-5 -7 -7 -8 -12 -8 -5 -3 -3 -2 -2 -2 0 2 15 16 13 14 14 15 16 16

GFSNIL_sfc_dewp_372.txt.gz
Dewpoint
5 4 3 0 0 2 2 3 6 6 5 5 6 7 11 13 15 17 18 18 19 20
6 5 3 1 -3 3 3 6 4 3 4 5 6 7 9 11 13 15 17 19 20 20
8 6 5 5 4 2 3 3 3 3 4 5 6 7 8 9 10 12 15 17 18 19
8 7 6 6 5 4 3 4 4 3 4 4 5 6 7 7 8 9 11 15 17 18
8 6 4 3 3 3 3 3 3 4 3 4 4 6 7 7 7 9 11 13 16 17
5 2 3 0 -1 -0 0 1 -1 1 0 2 4 5 6 8 8 10 12 14 15 17
-0 -2 -3 -4 -4 -3 -2 -1 -0 -1 -0 2 3 5 6 8 11 12 14 16 17 18
-5 -10 -10 -9 -7 -8 -8 -5 -4 -2 -1 0 2 5 8 12 15 16 17 18 17 17
-8 -8 -9 -8 -10 -11 -8 -9 -8 -8 -6 -3 2 13 17 18 16 17 18 16 16 16
-8 -7 -10 -11 -12 -9 -9 -13 -9 -8 -8 -6 -2 13 17 19 16 17 16 16 16 14
-8 -8 -9 -13 -11 -12 -13 -9 -6 -6 -7 -6 -1 13 15 17 14 15 15 15 14 14
-12 -7 -10 -9 -10 -10 -14 -10 -10 -6 -5 -5 -3 11 14 13 9 10 11 13 14 15
-6 -11 -11 -12 -10 -14 -17 -8 -4 -3 -3 3 1 9 13 12 8 8 10 12 14 18
-7 -13 -12 -12 -16 -14 -11 -7 -7 -5 -4 -4 -2 -0 13 14 9 10 10 10 11 13

GFSNIL_sfc_dewp_375.txt.gz
Dewpoint
6 7 6 4 5 5 5 4 7 6 6 5 5 6 10 10 11 12 16 18 19 19
11 9 9 7 6 7 7 9 7 5 6 7 6 6 8 9 10 13 14 16 18 18
10 9 9 9 7 5 6 6 6 7 6 7 7 6 7 7 8 11 12 13 14 17
10 9 8 8 7 7 6 6 6 6 6 6 7 6 7 7 6 7 9 12 15 15
9 8 8 7 6 5 5 5 5 6 5 5 5 6 7 6 6 7 9 11 14 15
8 6 6 6 5 3 3 4 4 4 4 4 5 6 6 7 8 8 10 13 15 16
7 4 4 4 2 1 1 1 2 3 3 4 4 6 6 8 10 12 13 15 16 17
4 1 1 1 0 -1 -1 0 -0 1 2 3 4 7 11 14 15 15 15 15 16 17
-0 -1 -1 -2 -2 -2 -1 -2 -1 -1 -1 -0 4 11 15 17 16 15 15 15 15 15
-2 -3 -2 -2 -3 -2 -1 -3 -2 -2 -2 -2 0 12 15 17 14 14 15 14 14 13
-1 -1 -2 -4 -4 -5 -4 -3 -2 -2 -2 -2 1 12 14 16 14 14 13 12 12 12
-2 -2 -3 -4 -5 -5 -5 -3 -3 -1 -2 -3 -1 11 13 13 11 11 11 11 10 10
-2 -4 -6 -6 -7 -6 -6 -3 -2 -1 -1 3 3 9 13 13 11 10 11 11 11 15
-2 -5 -6 -7 -7 -6 -6 -4 -5 -3 -2 -3 -1 0 13 14 10 11 10 10 11 12